sat.trackr.live / text

‹ back to catalog

STARLINK-32832

NORAD 63040 · 2025-034M

PAYLOAD ACTIVE UNKNOWN

§ Identity

Operator
Country
US
Launch date
2025-02-18
Launch site
AFETR
Launch vehicle
Mass (kg)
RCS (m²)

Purposes: comms

External: N2YO · Heavens-Above · Gunter

§ Orbital elements

Epoch: 2026-09-21T19:01:29.823456Z

Period
94.01 min
Inclination
53.1576°
Eccentricity
0.0000872
Mean motion
15.31697159 rev/d
Perigee alt
470.2 km
Apogee alt
471.3 km
Semi-major
6,848.9 km
B*
3.4310e-4
RAAN
65.6443°
Arg perigee
91.6975°
Mean anomaly
268.4126°
Rev number
8,913

§ Raw data

STARLINK-328321 63040U 25034M   26264.79270629  .00010296  00000+0  34310-3 0  99902 63040  53.1576  65.6443 0000872  91.6975 268.4126 15.31697159 89131

JSON: /api/v1/satellites/63040 · /tle

For live sub-satellite position, see the globe view (requires WebGL).

§ Visibility from observer

Set your observer location to see the next 7 days of passes ≥ 10°. The values pass through the URL so the page stays shareable.

No JS? Fill the form by hand. The geolocation button needs JavaScript.